WATER LEVELS

Elbe

Guaranteed water level and forecast    Ústí nad Labem-Střekov

Guaranteed water level
180 cm
on 21.04.2024 more information
Forecast
175 cm
on 22.04.2024 06:00
Tendency
steady state
on 22.04.2024 tendency methodology
Assumption
170 cm
on 23.04.2024 06:00
(Source data ČHMÚ a Povodí Labe)

Ústí nad Labem

Date and time (UTC) H (cm) Q (m³/s)
22. 4. 2024 03:50 190 172
22. 4. 2024 03:00 187 167
22. 4. 2024 02:00 187 167
22. 4. 2024 01:00 188 169
22. 4. 2024 00:00 188 169
21. 4. 2024 23:00 189 170
21. 4. 2024 22:00 190 172
21. 4. 2024 21:00 191 174
21. 4. 2024 20:00 198 187
21. 4. 2024 19:00 206 204
21. 4. 2024 18:00 208 208
21. 4. 2024 17:00 218 229
21. 4. 2024 16:00 217 227
21. 4. 2024 15:00 208 208

H - water level, Q - discharge
more information

Mělník

Date and time (UTC) H (cm) Q (m³/s)
22. 4. 2024 03:50 268 -
22. 4. 2024 03:00 267 -
22. 4. 2024 02:00 266 -
22. 4. 2024 01:00 265 -
22. 4. 2024 00:00 267 -
21. 4. 2024 23:00 268 -
21. 4. 2024 22:00 268 -
21. 4. 2024 21:00 268 -
21. 4. 2024 20:00 270 -
21. 4. 2024 19:00 273 -
21. 4. 2024 18:00 276 -
21. 4. 2024 17:00 261 -
21. 4. 2024 16:00 267 -
21. 4. 2024 15:00 268 -

H - water level, Q - discharge
more information

Kostelec nad Labem

Date and time (UTC) H (cm) Q (m³/s)
22. 4. 2024 03:50 408 -
22. 4. 2024 03:00 408 -
22. 4. 2024 02:00 408 -
22. 4. 2024 01:00 407 -
22. 4. 2024 00:00 407 -
21. 4. 2024 23:00 407 -
21. 4. 2024 22:00 408 -
21. 4. 2024 21:00 408 -
21. 4. 2024 20:00 409 -
21. 4. 2024 19:00 409 -
21. 4. 2024 18:00 409 -
21. 4. 2024 17:00 410 -
21. 4. 2024 16:00 407 -
21. 4. 2024 15:00 403 -

H - water level, Q - discharge
more information

Přelouč

Date and time (UTC) H (cm) Q (m³/s)
22. 4. 2024 03:50 75 39.2
22. 4. 2024 03:00 75 39
22. 4. 2024 02:00 75 39
22. 4. 2024 01:00 75 39
22. 4. 2024 00:00 75 39
21. 4. 2024 23:00 75 39
21. 4. 2024 22:00 76 40
21. 4. 2024 21:00 77 41
21. 4. 2024 20:00 77 41
21. 4. 2024 19:00 77 41
21. 4. 2024 18:00 78 42
21. 4. 2024 17:00 79 43
21. 4. 2024 16:00 79 43
21. 4. 2024 15:00 78 42

H - water level, Q - discharge
more information


Vltava

Praha-Chuchle

Date and time (UTC) H (cm) Q (m³/s)
22. 4. 2024 03:50 59 70
22. 4. 2024 03:00 59 70
22. 4. 2024 02:00 59 70
22. 4. 2024 01:00 59 70
22. 4. 2024 00:00 59 70
21. 4. 2024 23:00 59 70
21. 4. 2024 22:00 59 70
21. 4. 2024 21:00 59 70
21. 4. 2024 20:00 59 70
21. 4. 2024 19:00 59 70
21. 4. 2024 18:00 60 73
21. 4. 2024 17:00 60 73
21. 4. 2024 16:00 60 73
21. 4. 2024 15:00 59 70

H - water level, Q - discharge
more information

VD Orlík

Date and time (UTC) H (m n. m.) Q (m³/s)
22. 4. 2024 04:00 342.58 0
22. 4. 2024 03:00 342.57 0
22. 4. 2024 02:00 342.56 0
22. 4. 2024 01:00 342.56 0
22. 4. 2024 00:00 342.55 0
21. 4. 2024 23:00 342.54 0
21. 4. 2024 22:00 342.53 0
21. 4. 2024 21:00 342.52 0
21. 4. 2024 20:00 342.52 0
21. 4. 2024 19:00 342.51 0
21. 4. 2024 18:00 342.50 0
21. 4. 2024 17:00 342.49 0
21. 4. 2024 16:00 342.48 0

H - water level, Q - outflow

VD Kořensko

Date and time (UTC) H (m n. m.) Q (m³/s)
- - -

H - water level, Q - outflow

České Budějovice

Date and time (UTC) H (cm) Q (m³/s)
22. 4. 2024 03:40 103 16.5
22. 4. 2024 03:00 103 17
22. 4. 2024 02:00 103 18
22. 4. 2024 01:00 104 18
22. 4. 2024 00:00 103 18
21. 4. 2024 23:00 103 18
21. 4. 2024 22:00 104 18
21. 4. 2024 21:00 103 17
21. 4. 2024 20:00 103 18
21. 4. 2024 19:00 103 17
21. 4. 2024 18:00 107 18
21. 4. 2024 17:00 103 18
21. 4. 2024 16:00 103 18
21. 4. 2024 15:00 103 18

H - water level, Q - discharge
more information


Morava

Strážnice

Date and time (UTC) H (cm) Q (m³/s)
22. 4. 2024 03:40 216 66.8
22. 4. 2024 03:00 223 71
22. 4. 2024 02:00 227 73
22. 4. 2024 01:00 229 74
22. 4. 2024 00:00 229 74
21. 4. 2024 23:00 228 73
21. 4. 2024 22:00 229 74
21. 4. 2024 21:00 230 75
21. 4. 2024 20:00 224 71
21. 4. 2024 19:00 222 70
21. 4. 2024 18:00 217 67
21. 4. 2024 17:00 212 65
21. 4. 2024 16:00 206 62
21. 4. 2024 15:00 200 58

H - water level, Q - discharge
more information

Kroměříž

Date and time (UTC) H (cm) Q (m³/s)
22. 4. 2024 03:40 184 54.5
22. 4. 2024 03:00 184 55
22. 4. 2024 02:00 185 55
22. 4. 2024 01:00 186 56
22. 4. 2024 00:00 188 58
21. 4. 2024 23:00 189 59
21. 4. 2024 22:00 190 59
21. 4. 2024 21:00 192 61
21. 4. 2024 20:00 196 64
21. 4. 2024 19:00 199 67
21. 4. 2024 18:00 195 63
21. 4. 2024 17:00 197 65
21. 4. 2024 16:00 198 66
21. 4. 2024 15:00 201 68

H - water level, Q - discharge
more information
Source data
Labe Basin Vltava Basin Povodí Moravy ČHMÚ
Po vodě ekologicky, levně a v pohodě
backgroung on backgroung off